Theta_e
321 322 322 320 320 320 320 319 318 318 319 319 320 320 321 321 320 320 320 321 321 321 321 321 322 325 321 320 320 323 338 333 318 319 320 316 312 312 309 313 315 314 316 320 320 320 322
321 321 321 321 321 320 319 318 318 318 319 319 319 319 320 320 320 320 320 319 319 319 320 321 324 321 322 314 329 322 322 319 319 319 317 316 313 314 312 313 314 317 316 319 320 319 321
322 321 322 322 321 320 319 318 318 318 318 319 319 319 319 320 320 319 319 318 317 318 320 322 324 321 318 316 329 324 322 319 320 318 315 317 316 313 314 311 316 316 313 316 318 319 318
322 322 321 321 321 320 319 319 318 318 318 319 319 318 319 319 319 319 319 318 317 319 322 324 324 322 315 325 327 324 324 322 321 320 318 319 318 316 314 316 313 311 312 308 316 317 320
322 322 321 321 321 320 319 318 318 317 318 318 319 318 318 319 318 318 318 317 317 320 323 325 321 320 313 323 319 327 327 321 319 318 318 319 317 314 314 309 307 309 304 307 311 318 318
323 323 322 321 320 319 318 318 317 317 317 318 319 318 318 318 318 317 316 315 320 317 322 323 323 316 320 316 319 325 326 321 316 314 313 313 312 309 308 307 300 303 303 307 310 315 317
323 322 322 321 320 319 318 318 317 316 317 318 319 318 317 317 317 315 315 318 315 315 318 314 314 311 315 320 325 322 323 318 316 312 306 310 305 303 306 309 309 308 307 307 312 316 316
320 322 322 321 321 320 318 318 317 316 317 318 319 318 318 317 316 315 316 314 312 312 305 313 313 315 318 320 312 318 323 313 311 305 309 308 304 310 311 310 308 307 305 306 311 315 315
318 319 321 320 320 319 318 318 317 316 316 317 317 317 317 317 316 316 317 314 316 315 306 310 315 313 315 316 312 313 319 315 311 308 307 306 310 312 311 309 307 307 305 306 307 312 314
317 317 319 319 318 318 318 318 317 316 316 317 317 317 317 315 314 320 315 319 318 318 303 307 310 312 314 315 310 318 320 316 313 308 309 308 313 310 309 307 309 304 309 308 308 307 303
317 317 316 318 318 318 317 318 317 316 316 317 317 318 317 315 316 315 318 320 318 316 294 310 310 318 314 310 311 313 320 317 311 311 311 307 309 309 306 308 310 306 311 308 307 305 306
317 317 316 315 318 318 316 316 316 316 315 316 317 318 316 318 319 321 322 319 314 301 294 307 311 308 307 309 310 314 315 318 317 312 312 310 314 311 309 311 311 311 308 308 307 305 298
317 316 316 315 316 317 316 315 315 315 315 316 316 317 316 321 317 323 320 314 298 295 307 306 307 308 306 305 308 310 309 309 307 304 305 308 308 310 311 307 310 308 306 299 297 297 296
316 316 316 315 314 315 315 315 314 314 314 315 315 314 317 320 322 322 316 305 293 301 304 310 309 308 303 306 307 309 308 306 310 309 306 303 301 308 311 308 306 307 306 300 296 297 300
316 315 315 315 315 314 315 314 313 313 313 314 314 318 318 322 323 321 310 297 297 303 307 307 307 304 304 306 306 307 307 306 309 310 304 304 304 312 311 310 310 306 304 309 303 304 300
314 315 315 315 314 314 315 314 313 313 313 314 315 316 316 322 324 316 306 297 301 307 306 307 303 306 303 305 304 305 305 309 308 312 313 309 303 309 310 311 310 308 311 303 304 297 295
311 313 315 314 313 313 314 313 313 313 313 313 314 311 317 322 321 311 300 301 303 308 307 305 305 306 307 305 306 305 305 309 311 310 312 310 308 306 309 306 305 306 304 306 307 305 298
312 312 314 315 313 313 314 313 312 312 311 311 312 305 319 321 306 305 301 305 305 306 308 306 309 309 309 308 306 306 305 310 313 312 307 311 310 303 305 311 312 311 309 308 302 301 303
312 312 314 314 314 313 313 312 312 312 311 315 308 308 319 317 300 301 305 305 306 305 305 305 306 310 312 310 306 310 312 315 314 313 312 313 307 301 303 308 311 308 309 309 310 311 304
311 312 312 314 313 312 312 312 312 312 312 313 309 302 310 311 309 305 303 303 303 307 306 307 308 310 310 309 312 309 311 314 315 316 320 320 311 307 300 304 310 307 309 309 309 303 303
311 312 311 314 313 313 313 312 312 312 311 313 309 305 308 302 304 306 308 306 302 303 307 308 307 308 308 307 308 309 312 312 314 310 314 316 306 308 307 309 309 307 308 307 306 308 304
311 312 311 313 313 313 312 312 312 311 310 312 306 306 310 307 308 305 304 306 303 305 305 304 305 308 310 309 309 307 311 311 309 310 313 315 306 307 304 307 306 303 306 306 306 307 307
310 310 311 312 312 312 313 313 313 312 311 310 314 315 312 306 306 304 305 306 306 307 308 308 308 308 308 312 315 317 316 313 315 312 313 313 309 306 300 305 304 300 305 306 307 311 312
309 309 311 311 312 311 313 313 314 313 312 313 313 316 307 303 303 305 306 308 307 308 306 309 310 309 312 319 318 319 316 315 315 316 318 312 310 307 300 303 294 308 314 313 311 315 317
308 309 309 310 312 311 312 314 314 313 313 312 314 313 311 302 306 306 306 308 309 311 309 311 312 317 323 316 310 308 307 309 310 313 313 314 310 302 299 299 303 309 313 310 308 311 317
308 308 309 311 312 312 313 314 314 314 313 313 311 319 314 307 306 310 309 309 306 308 309 313 321 326 323 311 307 301 299 303 302 307 314 313 315 308 303 297 294 309 313 316 313 304 316
310 309 309 311 312 312 313 315 315 314 314 313 313 324 314 307 313 312 311 310 313 312 310 312 316 316 321 309 303 301 300 306 300 301 304 305 305 301 300 299 306 313 315 317 302 305 315
310 309 310 311 313 312 313 315 315 314 314 311 314 322 316 313 315 315 316 313 314 315 312 315 313 314 312 308 303 303 303 305 306 308 304 306 302 303 304 301 298 314 315 309 311 317 315
310 311 311 311 313 312 313 315 315 314 313 312 310 318 318 311 313 321 319 319 317 317 315 313 317 319 312 309 309 311 306 308 308 301 313 304 312 310 310 307 312 314 314 316 316 314 313
Wind_Speed
11 13 13 13 12 11 10 9 10 11 12 12 13 14 14 16 18 20 21 20 20 19 19 17 14 8 8 10 9 10 11 8 11 10 13 13 12 13 16 18 17 15 17 9 3 4 12
11 13 14 14 13 12 12 11 10 11 12 12 14 15 16 17 18 20 21 21 20 18 17 17 11 4 8 16 15 14 14 13 13 13 14 13 10 14 15 21 16 14 15 19 7 8 7
14 14 14 13 13 12 12 12 11 11 12 12 13 14 17 18 21 21 23 23 20 17 16 14 8 7 13 18 11 13 13 13 14 15 13 13 15 12 17 15 19 18 11 17 14 8 8
16 16 15 14 13 13 12 13 12 13 13 13 14 15 17 18 21 23 25 27 22 18 14 10 5 9 10 3 4 13 15 14 14 11 14 10 12 12 12 15 15 16 14 15 18 15 14
17 17 16 15 14 14 13 13 12 13 13 13 13 15 17 19 21 23 26 28 25 18 9 5 7 9 17 5 11 13 12 14 10 10 10 7 5 11 13 13 14 13 15 18 20 20 10
19 18 18 17 16 15 14 13 13 12 13 13 13 14 17 19 22 23 27 31 16 3 6 9 12 10 15 13 14 13 11 11 10 11 10 9 8 13 14 13 13 12 16 18 15 12 11
20 19 19 18 17 16 15 14 13 13 12 12 13 13 16 18 22 24 17 14 7 5 8 17 9 14 8 8 10 11 12 10 11 12 14 15 13 15 18 18 18 18 20 19 16 15 15
17 21 20 20 19 17 16 14 14 13 12 12 12 14 15 18 21 23 12 9 7 9 13 19 22 20 20 10 11 14 15 12 15 15 16 14 16 18 17 18 18 20 20 12 16 18 9
18 18 21 21 19 18 17 16 14 14 12 12 12 13 15 17 20 15 13 2 8 10 9 17 21 22 17 9 14 18 17 17 15 16 16 18 19 19 17 16 8 11 13 12 17 12 3
18 17 19 21 20 18 18 17 15 14 13 12 12 13 13 17 8 12 11 3 7 6 7 16 16 15 23 17 17 16 18 17 14 16 18 19 19 7 12 8 11 14 15 17 18 16 11
18 17 17 19 21 20 19 18 16 15 13 12 12 12 12 4 14 10 7 8 8 4 8 18 16 12 15 21 9 20 19 19 19 15 13 13 13 14 11 11 12 14 14 11 15 16 17
19 18 17 16 20 22 19 18 17 15 13 12 12 10 10 10 8 16 8 9 7 8 9 11 11 14 18 19 22 16 14 19 15 16 12 16 5 7 10 14 12 8 9 12 11 10 14
18 18 18 16 17 21 21 20 18 16 13 12 12 10 7 11 9 12 7 8 8 10 9 10 15 16 18 16 21 16 18 19 13 11 13 13 13 9 12 15 15 7 12 8 10 12 12
16 17 18 17 17 19 22 20 18 15 13 11 11 8 11 12 13 12 8 9 11 13 20 2 14 19 17 18 17 15 17 15 18 15 12 13 16 20 12 15 10 12 13 11 13 12 10
15 16 19 19 18 16 22 20 19 17 13 9 5 10 11 13 16 11 8 12 12 16 5 7 6 10 18 19 15 15 19 18 18 17 15 11 9 10 13 9 13 12 13 15 15 16 14
17 15 20 21 19 16 22 19 18 16 12 10 7 10 15 18 16 8 10 17 19 21 6 7 8 13 13 17 16 17 17 18 17 19 15 13 7 9 9 8 13 14 12 7 6 10 12
20 23 17 20 18 16 21 18 15 14 13 8 7 8 13 22 10 9 13 18 20 20 4 6 13 16 16 13 14 12 12 9 10 7 11 10 6 2 8 8 13 10 11 11 11 9 10
21 23 21 14 17 16 19 17 14 13 13 6 6 10 11 13 11 11 14 21 20 17 10 10 9 17 15 9 16 15 17 10 9 3 9 9 4 9 11 10 13 6 5 2 5 9 9
22 18 20 3 16 21 19 15 14 13 17 7 5 10 7 12 12 13 19 21 21 11 8 11 9 13 12 8 9 13 12 10 8 5 3 6 4 7 11 5 8 8 8 9 6 3 9
20 18 17 13 17 20 18 17 17 15 13 4 6 5 7 9 13 18 17 19 19 7 16 14 12 11 8 11 3 8 12 7 11 10 4 4 2 7 3 9 4 10 11 5 8 5 9
18 15 18 13 19 19 17 13 13 10 11 4 6 5 12 13 14 15 17 14 15 12 16 15 9 7 12 10 8 13 15 11 11 5 5 2 4 8 6 10 11 5 17 9 10 16 8
16 14 9 7 12 17 16 14 12 14 12 6 7 3 11 12 18 19 13 14 17 19 15 13 10 15 13 10 12 13 14 12 13 9 7 3 3 6 10 12 13 14 13 13 12 13 13
17 15 10 5 19 17 11 13 12 14 13 6 5 10 7 5 17 16 13 14 11 12 12 18 18 14 11 11 13 14 11 14 8 10 7 4 3 5 8 13 14 8 5 7 4 15 16
16 14 12 8 21 17 13 11 13 14 15 5 4 8 8 2 8 13 17 17 14 13 11 12 14 16 6 2 5 19 18 15 11 8 6 4 3 4 8 10 13 9 6 7 10 17 16
16 14 10 4 18 22 15 9 11 10 9 5 8 9 7 4 10 12 15 16 14 9 6 7 10 4 6 5 7 6 8 7 7 12 9 2 4 4 8 10 9 9 14 8 7 15 16
22 17 11 10 15 19 14 10 10 10 7 5 10 5 6 3 3 12 10 6 7 9 11 13 9 6 3 5 9 9 8 8 8 11 8 8 6 5 7 9 13 10 13 20 7 5 14
16 17 14 16 18 20 13 11 10 8 8 6 8 3 4 5 3 11 5 4 3 4 4 11 5 3 5 7 11 10 11 14 7 4 4 9 9 10 9 10 7 13 11 14 8 5 9
7 14 13 16 23 23 17 12 12 9 6 2 8 4 4 5 3 6 7 11 6 5 4 3 7 8 8 11 11 10 10 1 5 10 11 12 2 8 5 9 2 21 6 8 4 7 7
7 11 16 13 19 23 19 14 13 11 7 1 7 1 2 5 5 9 5 5 7 8 3 5 3 9 8 9 6 3 7 1 7 4 7 3 8 3 6 5 4 9 8 4 5 6 6
Wind_Direction
281 283 286 288 290 291 292 295 301 307 315 316 313 314 318 317 315 315 312 312 312 310 311 312 314 316 280 248 248 136 143 141 165 192 234 224 224 242 234 247 239 241 265 255 271 220 261
254 269 272 276 280 284 288 291 296 303 305 305 311 317 318 317 314 313 310 310 306 305 307 306 308 322 261 270 107 144 155 161 184 208 234 219 219 223 240 255 245 238 249 275 228 229 224
244 251 254 260 265 269 274 280 286 288 289 298 305 312 316 315 314 314 310 307 303 299 299 298 299 278 275 257 129 167 163 186 216 211 232 226 238 221 241 284 279 256 230 254 273 225 242
245 243 245 245 250 256 262 270 277 286 294 298 304 310 313 313 315 314 311 306 300 291 291 285 280 271 265 140 233 170 185 198 216 224 254 238 250 276 241 247 266 265 259 260 236 234 226
241 240 242 243 242 244 248 253 260 272 282 291 301 306 308 311 314 313 308 302 295 280 246 272 246 220 265 118 216 197 200 214 204 227 243 290 229 244 244 245 255 234 238 232 261 210 221
242 239 236 236 237 239 241 245 251 257 269 280 290 299 306 310 311 309 311 297 293 214 209 234 258 264 244 221 193 190 201 231 197 212 208 221 221 229 235 222 233 216 226 257 243 178 200
242 239 237 234 234 234 235 240 247 253 263 276 288 296 303 305 306 308 329 312 296 180 262 259 293 234 275 187 124 197 197 205 202 207 214 204 217 217 223 229 236 259 220 225 258 245 191
263 243 235 235 232 230 229 231 239 247 254 265 278 289 298 302 305 309 292 298 26 306 298 277 265 246 267 195 196 210 189 211 199 209 211 216 228 238 228 236 220 249 266 286 277 274 216
262 258 240 232 230 227 225 226 230 238 245 257 270 282 294 302 312 289 248 346 297 301 276 284 237 224 226 230 233 200 190 213 203 218 213 235 225 214 247 232 260 268 272 266 265 285 66
263 258 253 233 224 224 222 223 225 231 238 248 261 277 293 313 284 285 279 24 315 353 273 243 205 212 210 204 231 228 191 213 228 220 228 224 255 245 226 240 238 244 243 245 268 269 259
257 257 257 246 223 218 219 222 222 223 231 241 256 272 290 286 315 280 14 319 337 260 278 141 171 192 185 198 177 219 178 219 238 216 238 233 234 251 238 237 234 262 283 281 238 259 274
256 253 252 255 239 216 212 215 217 221 217 233 252 268 307 257 214 256 292 309 273 232 241 150 141 183 179 204 230 180 190 217 235 255 230 260 301 274 223 249 255 278 272 267 281 268 252
266 250 250 247 244 231 207 207 211 216 208 226 245 260 265 304 251 332 314 272 228 239 236 149 163 182 196 193 211 180 196 205 222 226 235 226 237 220 252 238 239 213 251 242 228 228 246
279 254 248 246 247 238 204 201 208 205 205 218 244 261 246 241 274 261 277 245 243 228 249 16 181 171 192 191 216 164 191 200 220 234 250 218 215 209 198 249 218 209 241 250 257 244 274
290 271 253 242 238 238 209 192 203 190 201 199 254 245 239 241 235 251 245 229 220 251 301 169 245 196 194 185 206 181 203 214 201 228 244 281 223 147 183 207 265 257 208 234 268 284 284
335 303 266 248 237 230 213 183 202 189 183 175 237 239 236 221 212 214 232 243 246 254 347 318 259 217 206 192 195 189 196 211 217 203 227 272 298 147 186 231 249 256 276 288 246 273 276
331 324 298 242 229 221 205 172 193 186 168 152 237 232 225 212 163 222 227 232 240 264 289 253 271 299 250 192 185 191 210 198 204 151 189 247 269 280 130 208 239 213 250 258 285 305 312
329 325 324 261 220 214 167 159 177 185 132 186 247 224 170 153 193 217 225 233 255 281 171 242 263 280 296 266 184 219 230 153 171 180 215 225 304 259 219 220 225 296 335 10 257 262 262
328 325 333 170 161 156 149 161 184 171 173 190 242 226 181 189 207 214 223 238 236 238 263 215 244 262 313 288 210 106 86 99 138 167 68 202 220 264 264 227 234 254 267 266 260 12 282
328 324 328 180 157 155 159 175 188 185 198 288 272 199 175 205 231 229 218 215 228 192 241 233 233 258 259 272 249 95 133 141 165 86 51 334 252 271 284 335 209 318 326 325 260 228 281
325 330 329 200 157 157 160 177 184 160 137 211 244 172 244 185 210 233 248 234 213 205 230 232 224 237 241 244 238 136 216 152 128 95 155 9 254 268 270 225 185 209 262 257 250 255 249
333 342 330 166 158 160 162 188 178 143 150 233 297 342 221 217 202 210 219 258 198 211 190 225 216 222 230 231 237 263 153 172 154 162 161 103 236 304 298 298 280 273 263 276 277 283 289
330 334 321 277 164 178 175 180 165 154 190 217 250 266 257 212 198 202 212 220 233 220 190 207 203 234 232 214 63 75 69 314 229 163 146 160 313 299 280 299 292 251 338 271 324 41 25
319 321 324 308 164 188 191 179 169 176 204 310 287 314 251 14 307 191 205 190 219 229 193 231 203 229 230 200 67 124 121 258 93 73 45 173 197 283 270 279 279 94 41 66 68 52 30
302 297 297 244 169 182 206 180 172 183 216 268 297 304 310 109 284 247 201 184 215 163 225 262 228 165 349 194 201 195 156 190 186 149 151 208 269 265 262 242 229 102 19 8 19 54 27
280 265 253 208 192 176 196 176 179 177 209 257 278 324 305 43 18 330 262 233 197 184 193 246 91 59 324 235 213 196 217 206 216 172 184 172 229 248 242 261 262 82 112 284 311 127 13
266 222 217 190 185 188 191 177 166 165 214 233 292 9 296 282 333 299 41 309 22 317 282 208 161 218 254 231 213 213 219 243 213 198 142 201 216 211 224 244 112 11 324 283 249 39 10
141 171 190 173 176 188 185 175 158 159 217 237 290 2 336 332 357 321 4 17 33 26 344 281 136 203 196 229 233 223 240 323 185 151 166 219 193 277 287 285 180 354 42 18 16 49 26
104 142 159 163 162 179 183 161 148 172 204 339 270 106 311 271 194 283 354 55 46 94 14 287 260 177 190 212 241 358 43 353 262 142 335 200 22 38 35 84 118 52 56 64 59 69 65